Tracking 19644 objects as of 25-Apr-2019
HD Live streaming from Space Station
objects crossing your sky now

CZ-4 DEB

Track CZ-4 DEB now!
10-day predictions


NORAD ID: 26231
Int'l Code: 1999-057DV
Perigee: 548.6 km
Apogee: 613.2 km
Inclination: 98.7 °
Period: 96.1 minutes
Semi major axis: 6951 km
RCS: 0.0475 m2 (small)
Launch date: October 14, 1999
Source: People's Republic of China (PRC)
Launch site: Taiyaun Space Center, China (TSC)

Note: This is SATELLITE DEBRIS
aabbcc
Your satellite tracking list
Your tracking list is empty




NASA's NSSDC Master Catalog

Two Line Element Set (TLE):
1 26231U 99057DV  19114.28385321 +.00000683 +00000-0 +63214-4 0  9999
2 26231 098.6917 212.6321 0046468 149.7313 277.8318 14.97773843034533
Source of the keplerian elements: AFSPC